Probability
0 0 0 0 0 0 0 0 0 0 0 0 0 0 0 0 0 0 0 0 0 0 0 0 0 0 0 0 0 0 0 0 0 0 0 0 0 0 0 0 0 0 0 0
0 0 0 0 0 0 0 0 0 0 0 0 0 0 0 0 0 0 0 0 0 0 0 0 0 0 0 0 0 0 0 0 0 0 0 0 0 0 0 0 0 0 0 0
0 0 0 0 0 0 0 0 0 0 0 0 0 0 0 0 0 0 0 0 0 0 0 0 0 0 0 0 0 0 0 0 0 0 0 0 0 0 0 0 0 0 0 0
0 0 0 0 0 0 0 0 0 0 0 0 0 0 0 0 0 0 0 0 0 0 0 0 0 0 0 0 0 0 0 0 0 0 0 0 0 0 0 0 0 0 0 0
0 0 0 0 0 0 0 0 0 0 0 0 0 0 0 0 0 0 0 0 0 0 0 0 0 0 0 0 0 0 0 0 0 0 0 0 0 0 0 0 0 0 0 0
0 0 0 0 0 0 0 0 0 0 0 0 0 0 0 0 0 0 0 0 0 0 0 0 0 0 0 0 0 0 0 0 0 0 0 0 0 0 0 0 0 0 0 0
0 0 0 0 0 0 0 0 0 0 0 0 0 0 0 0 0 0 0 0 0 0 0 0 0 0 0 0 0 0 0 0 0 0 0 0 0 0 0 0 0 0 0 0
0 0 0 0 0 0 0 0 0 0 0 0 0 0 0 0 0 0 0 0 0 0 0 0 0 0 0 0 0 0 0 0 0 0 0 0 0 0 0 0 0 0 0 0
0 0 0 0 0 0 0 0 0 0 0 0 0 0 0 0 0 0 0 0 0 0 0 0 0 0 0 0 0 0 0 0 0 0 0 0 0 0 0 0 0 0 0 0
0 0 0 0 0 0 0 0 0 0 0 0 0 0 0 0 0 0 0 0 0 0 0 0 0 0 0 0 0 0 0 0 0 0 0 0 0 0 0 0 0 0 0 0
0 0 0 0 0 0 0 0 0 0 0 0 0 0 0 0 0 0 0 0 0 0 0 0 0 0 0 0 0 0 0 0 0 0 0 0 0 0 0 0 0 0 0 0
0 0 0 0 0 0 0 0 0 0 0 0 0 0 0 0 0 0 0 0 0 0 0 0 0 0 0 0 0 0 0 0 0 0 0 0 0 0 0 0 0 0 0 0
0 0 0 0 0 0 0 0 0 0 0 0 0 0 0 0 0 0 0 0 0 0 0 0 0 0 0 0 0 0 0 0 0 0 0 0 0 0 0 0 0 0 0 0
0 0 0 0 0 0 0 0 0 0 0 0 0 0 0 0 0 0 0 0 0 0 0 0 0 0 0 0 0 0 0 0 0 0 0 0 0 0 0 0 0 0 0 0
0 0 0 0 0 0 0 0 0 0 0 0 0 0 0 0 0 0 0 0 0 0 0 0 0 0 0 0 0 0 0 0 0 0 0 0 0 0 0 0 0 0 0 0
0 0 0 0 0 0 0 0 0 0 0 0 0 0 0 0 0 0 0 0 0 0 0 0 0 0 0 0 0 0 0 0 0 0 0 0 0 0 0 0 0 0 0 0
0 0 0 0 0 0 0 0 0 0 0 0 0 0 0 0 0 0 0 0 0 0 0 0 0 0 0 0 0 0 0 0 0 0 0 0 0 0 0 0 0 0 0 0
0 0 0 0 0 0 0 0 0 0 0 0 0 0 0 0 0 0 0 0 0 0 0 0 0 0 0 0 0 0 0 0 0 0 0 0 0 0 0 0 0 0 0 0
0 0 0 0 0 0 0 0 0 0 0 0 0 0 0 0 0 0 0 0 0 0 0 0 0 0 0 0 0 0 0 0 0 0 0 0 0 0 0 0 0 0 0 0
0 0 0 0 0 0 0 0 0 0 0 0 0 0 0 0 0 0 0 0 0 0 0 0 0 0 0 0 0 0 0 0 0 0 0 0 0 0 0 0 0 0 0 0
0 0 0 0 0 0 0 0 0 0 0 0 0 0 0 0 0 0 0 0 0 0 0 0 0 0 0 0 0 0 0 0 0 0 0 0 0 0 0 0 0 0 0 0
0 0 0 0 0 0 0 0 0 0 0 0 0 0 0 0 0 0 0 0 0 0 0 0 0 0 0 0 0 0 0 0 0 0 0 0 0 0 0 0 0 0 0 0
0 0 0 0 0 0 0 0 0 0 0 0 0 0 0 0 0 0 0 0 0 0 0 0 0 0 0 0 0 0 0 0 0 0 0 0 0 0 0 0 0 0 0 0
0 0 0 0 0 0 0 0 0 0 0 0 0 0 0 0 0 0 0 0 0 0 0 0 0 0 0 0 0 0 0 0 0 0 0 0 0 0 0 0 0 0 0 0
0 0 0 0 0 0 0 0 0 0 0 0 0 0 0 0 0 0 0 0 0 0 0 0 0 0 0 0 0 0 0 0 0 0 0 0 0 0 0 0 0 0 0 0
0 0 0 0 0 0 0 0 0 0 0 0 0 0 0 0 0 0 0 0 0 0 0 0 0 0 0 0 0 0 0 0 0 0 0 0 0 0 0 0 0 0 0 0
0 0 0 0 0 0 0 0 0 0 0 0 0 0 0 0 0 0 0 0 0 0 0 0 0 0 0 0 0 0 0 0 0 0 0 0 0 0 0 0 0 0 0 0
Wind_Speed
3 3 6 10 13 13 11 8 5 5 6 11 15 14 13 13 13 14 14 13 12 9 7 7 7 6 5 4 3 3 4 4 3 2 2 2 2 2 1 1 2 3 3 3
1 1 5 10 15 13 11 9 8 7 7 12 13 10 12 13 14 14 13 12 11 11 10 9 9 8 8 7 7 7 7 6 5 5 5 5 4 4 3 2 2 2 3 3
0 3 2 7 10 9 6 8 7 7 8 14 13 14 12 12 14 13 12 10 10 9 8 8 7 7 8 7 7 8 8 7 7 7 6 6 6 5 4 3 2 2 2 3
2 3 4 3 3 4 3 5 7 7 9 12 12 11 6 7 10 12 10 8 8 7 7 7 7 7 7 7 8 8 7 7 7 7 6 6 6 6 5 3 3 3 3 3
3 3 1 2 2 3 3 3 5 7 10 12 14 7 5 9 11 9 7 5 4 4 4 5 6 6 6 7 7 7 7 7 6 6 6 7 7 6 4 4 4 4 3 3
3 3 2 3 2 1 1 2 4 5 8 10 10 7 7 13 13 11 7 4 4 4 5 6 6 5 6 6 6 6 6 5 5 6 6 7 6 5 4 4 4 4 4 4
3 2 3 4 2 1 1 2 5 5 5 6 4 4 10 13 10 7 6 4 4 5 5 5 5 5 6 5 5 4 4 5 6 6 6 6 6 5 5 5 5 6 6 5
3 2 5 3 2 3 4 3 3 4 4 5 7 8 8 8 8 8 6 5 4 4 4 4 4 4 5 4 4 3 4 5 6 6 6 6 7 7 7 7 7 7 6 6
6 6 5 3 4 3 3 2 3 3 5 5 6 6 8 8 8 7 6 5 3 3 4 4 3 3 3 4 3 3 4 4 4 5 5 6 7 7 7 7 6 6 5 5
2 4 4 3 3 3 3 4 5 5 6 4 5 6 7 7 7 7 7 5 4 3 3 4 3 2 2 2 1 2 3 3 3 4 4 5 5 5 6 6 6 6 6 5
3 4 2 4 4 4 3 3 4 4 3 3 4 5 5 6 7 6 6 5 4 3 4 4 3 2 1 0 1 2 1 2 2 2 2 3 4 4 4 4 5 4 4 4
8 8 7 6 5 4 3 2 2 3 4 4 3 5 5 6 5 5 6 5 5 5 5 5 4 3 2 2 2 1 0 1 2 2 1 1 1 2 3 3 6 8 7 5
6 6 6 4 4 4 3 3 2 2 3 4 5 4 5 5 5 6 6 6 6 6 6 5 4 4 4 3 3 2 1 0 1 1 1 1 1 2 3 4 5 7 9 10
5 7 4 4 4 4 3 2 1 1 3 3 4 4 5 5 6 7 7 7 7 7 6 5 5 5 4 4 4 3 2 1 1 1 1 1 2 2 2 3 3 4 6 9
7 6 6 5 5 4 3 1 0 2 4 5 4 5 6 6 7 8 8 7 7 6 5 4 4 5 3 4 5 4 3 1 1 1 1 2 2 2 3 3 3 3 4 5
7 5 5 5 6 5 4 3 2 3 3 4 5 6 6 6 7 7 7 6 6 7 7 6 5 4 2 4 5 4 3 3 3 2 2 2 2 2 3 3 3 3 4 4
11 8 7 6 7 6 5 4 4 3 4 4 5 6 6 6 6 7 8 7 6 6 6 5 6 5 2 5 5 4 3 2 4 3 2 2 2 2 2 2 2 3 3 4
12 12 10 9 7 6 5 4 4 4 4 4 5 5 5 6 6 8 8 9 7 6 4 5 6 5 1 4 5 4 3 3 2 2 2 2 2 2 2 2 2 2 2 3
8 9 9 9 8 6 5 4 4 4 4 4 3 4 5 5 6 7 7 7 7 7 8 9 12 5 1 4 5 4 4 4 3 2 2 3 3 2 2 2 2 1 2 2
9 9 9 8 7 6 5 4 3 3 3 2 2 4 5 6 6 6 6 5 4 4 7 9 7 3 1 3 6 4 4 4 4 3 2 2 2 2 2 2 2 2 2 2
11 9 9 8 7 6 5 4 3 3 2 1 2 3 5 6 6 5 5 5 5 6 7 9 4 3 1 2 5 4 4 4 4 3 3 3 2 2 2 2 2 2 2 2
10 10 9 8 7 5 4 4 3 3 2 2 2 3 4 5 6 6 5 4 6 11 8 4 4 4 2 3 3 3 4 4 3 3 3 3 3 3 3 3 2 2 2 3
9 9 9 8 8 6 4 3 4 3 3 3 3 3 3 4 4 3 5 5 6 11 8 5 6 7 2 3 3 3 4 4 3 3 3 3 3 3 3 3 3 3 3 3
9 9 8 7 6 5 5 5 4 3 3 3 4 4 3 3 4 3 4 9 11 11 6 7 9 5 4 3 3 3 3 3 3 3 3 3 3 3 3 3 3 3 3 4
9 8 7 7 7 6 6 5 3 3 3 3 4 4 3 3 4 4 5 6 10 9 5 7 9 2 2 3 3 3 3 3 4 3 3 3 3 3 3 3 3 3 3 4
8 8 8 8 7 6 5 4 4 3 3 3 3 3 3 3 4 4 4 5 7 8 6 4 4 2 0 2 3 3 3 3 3 3 4 3 4 4 3 4 5 4 4 4
6 5 5 4 4 5 5 5 5 5 5 5 4 4 3 3 3 4 4 4 4 5 5 4 3 2 1 2 2 3 3 3 3 3 3 3 3 4 4 5 4 4 4 4
Wind_Direction
97 73 46 33 22 26 36 34 39 20 13 359 347 343 349 355 1 15 23 27 29 27 25 24 26 24 23 19 33 79 88 77 59 44 35 16 357 329 303 267 238 214 208 210
159 247 36 35 21 21 24 17 17 18 13 344 334 343 356 3 5 11 16 21 24 27 28 27 29 29 36 42 45 61 65 54 37 33 33 21 9 3 353 327 287 231 218 217
326 311 7 21 2 7 21 25 12 9 340 332 341 346 350 356 0 2 3 8 15 18 19 20 24 30 37 39 47 54 54 46 35 31 27 17 13 14 3 345 335 301 261 236
85 53 51 289 298 342 356 31 16 354 342 343 335 319 317 360 360 352 350 355 360 4 10 13 21 28 33 37 42 47 45 39 29 25 21 11 12 8 354 347 344 331 312 281
97 95 94 316 354 359 350 353 359 346 343 344 336 330 347 357 353 338 332 335 342 355 6 14 18 19 37 34 33 38 33 25 16 16 14 10 6 355 348 348 348 342 334 328
99 115 195 254 294 323 222 331 336 341 336 339 353 17 332 331 332 328 333 339 353 1 15 18 6 12 36 27 27 22 15 12 11 15 17 11 1 354 349 350 352 357 6 5
102 131 253 249 279 124 144 262 306 315 314 324 334 266 283 307 318 324 328 340 1 12 12 359 354 16 28 21 12 356 7 21 22 18 18 15 9 8 5 9 19 25 25 21
133 150 245 237 149 170 210 246 282 288 293 300 292 291 304 319 334 342 343 343 358 4 353 346 356 16 18 5 347 5 29 34 28 22 23 20 21 20 20 21 27 26 25 25
184 208 231 213 205 219 194 234 266 270 288 298 302 313 324 330 337 341 341 335 338 345 336 339 353 12 11 343 360 41 44 35 26 26 28 25 28 24 22 22 25 22 22 22
210 252 235 228 240 250 220 227 256 270 283 293 302 311 322 329 335 338 337 334 330 332 328 322 331 348 339 342 65 74 50 27 19 25 27 29 31 27 27 22 19 19 19 14
218 244 232 250 233 238 245 254 276 296 295 302 311 316 317 321 323 325 325 322 321 304 289 287 297 306 300 220 130 92 48 18 14 21 30 34 36 31 26 27 20 18 13 9
207 203 182 214 218 215 221 252 282 308 322 326 319 311 314 313 311 315 317 317 318 305 284 278 275 271 262 221 183 157 35 0 357 0 16 35 29 23 27 26 27 35 33 27
189 171 174 191 193 199 204 230 257 285 303 311 315 310 312 307 305 313 315 318 313 300 285 276 267 260 249 210 187 182 182 274 357 9 21 33 46 44 20 3 20 32 27 27
153 129 149 184 192 197 197 208 258 317 315 308 304 311 315 312 311 317 316 312 306 300 290 275 261 258 241 196 179 173 166 155 103 38 37 51 67 68 57 40 16 356 2 21
173 165 170 176 177 179 178 180 271 319 321 322 317 321 323 323 317 313 310 313 316 313 307 298 279 270 234 184 172 168 163 161 123 88 75 79 78 73 62 54 42 14 4 7
168 156 150 157 177 186 187 198 227 277 298 303 309 316 315 311 308 309 314 324 329 319 314 309 296 289 234 177 164 160 168 175 145 118 96 90 81 77 67 59 47 35 27 7
148 166 176 184 194 199 203 209 220 248 276 290 299 308 316 324 329 329 328 326 314 300 300 308 305 303 239 174 163 159 155 150 136 113 110 113 105 98 91 80 64 49 29 24
177 180 177 179 184 197 213 226 236 250 261 277 300 316 328 333 327 321 322 325 329 333 337 333 322 313 241 170 159 151 146 142 136 134 129 123 121 120 114 103 88 73 42 41
172 169 174 181 182 184 200 222 239 256 277 289 306 315 311 311 312 314 321 332 342 341 333 332 331 335 239 176 154 144 145 144 138 134 134 132 122 123 127 127 118 104 89 73
171 170 174 182 184 182 197 217 233 258 275 284 306 320 323 321 321 322 325 321 300 290 303 317 327 330 282 174 153 145 149 150 150 147 143 142 145 148 149 148 144 134 119 106
172 171 175 181 188 194 199 201 210 245 274 289 294 303 305 308 316 322 326 319 308 318 320 324 331 325 278 176 155 147 151 152 156 160 163 163 161 160 162 162 157 152 142 132
173 174 178 180 182 192 201 195 202 225 256 278 292 305 314 317 322 320 299 273 295 320 324 314 314 308 277 174 156 156 157 158 160 161 166 170 172 174 177 173 166 158 151 145
174 176 177 181 185 191 192 198 205 210 230 250 269 285 290 289 288 293 305 303 309 318 320 303 306 311 247 156 160 164 165 166 170 174 178 180 182 181 180 177 170 161 155 151
174 178 182 178 163 166 198 220 213 215 227 247 255 259 263 288 297 272 267 300 315 320 316 313 322 316 151 147 160 168 173 176 178 180 180 178 180 179 176 170 168 165 159 155
178 176 170 165 175 196 209 208 207 224 231 250 268 269 255 233 250 281 298 306 320 329 326 329 341 1 135 151 166 177 183 187 184 178 180 180 184 183 179 174 172 168 163 161
180 183 186 191 193 193 188 182 196 213 212 238 265 267 267 267 270 280 295 310 324 332 332 327 335 350 171 181 181 185 189 194 191 186 189 189 188 183 180 179 177 172 167 163
186 184 182 194 203 193 182 183 198 212 208 208 233 251 257 274 288 300 310 317 324 328 327 327 326 318 280 233 209 196 189 189 190 189 189 190 187 188 187 183 177 170 163 161